Theta_e
320 321 321 318 317 316 315 314 315 316 316 318 317 318 315 318 317 317 318 317 316 317 318 318 318 318 317 317 318 320 320 320 322 323 322 322 325 327 328 329 330 331 331 330
320 319 315 315 316 318 318 319 317 317 318 317 317 318 316 316 316 317 317 316 317 316 316 316 315 315 316 316 317 318 318 319 320 321 323 321 320 322 325 328 329 330 331 330
317 315 315 316 316 317 316 317 317 318 317 315 316 316 314 314 315 316 316 316 316 316 315 314 315 315 316 316 316 316 317 318 320 320 321 322 321 323 326 325 326 326 327 328
316 313 316 317 318 318 319 315 317 316 319 319 314 318 314 314 313 312 314 315 314 314 314 313 313 314 315 316 317 317 317 317 318 318 319 321 322 322 322 321 322 323 326 328
313 312 314 316 317 315 317 314 314 315 317 317 317 320 313 312 314 313 313 313 313 313 312 311 311 311 313 316 316 316 317 317 318 318 318 319 321 322 322 323 324 324 325 326
310 312 312 312 313 314 312 313 313 315 317 320 314 314 314 310 311 311 311 311 313 313 311 310 310 311 312 314 316 317 318 318 318 317 318 319 321 322 323 324 325 325 325 326
312 311 311 312 313 313 314 314 313 315 317 313 310 313 313 310 310 310 310 313 312 310 309 309 309 310 311 312 313 313 314 315 317 318 322 325 325 325 326 326 327 327 328 328
312 313 311 309 312 314 314 313 312 312 309 310 309 313 311 309 311 312 312 311 311 309 308 308 308 309 310 311 311 312 313 313 313 313 315 319 322 325 326 327 327 328 328 328
310 310 310 309 309 312 312 316 312 311 300 307 309 307 306 306 306 308 309 310 309 307 307 307 308 308 308 309 310 310 311 311 311 311 313 313 313 314 318 323 325 326 326 326
307 310 308 309 310 310 310 310 313 310 311 311 308 308 308 308 307 304 307 309 308 307 307 306 306 306 306 306 307 309 310 310 310 309 310 310 311 312 313 313 314 321 323 324
305 305 307 308 310 312 311 312 310 310 306 306 308 308 305 307 306 304 307 309 307 305 304 304 304 303 303 304 305 305 306 308 308 307 308 308 309 309 310 311 313 313 313 316
307 306 307 309 306 307 310 310 310 312 309 308 309 309 305 305 304 307 307 305 303 302 301 301 301 301 301 301 301 303 305 304 304 302 302 303 303 305 306 308 309 309 312 313
308 308 304 305 303 304 308 310 310 311 307 310 310 308 302 303 303 306 303 301 300 300 299 299 300 299 299 299 299 299 299 302 307 303 302 301 301 301 302 303 305 307 308 309
309 306 309 308 306 305 307 307 309 310 312 311 310 308 305 304 304 301 300 298 297 296 296 297 298 297 297 297 296 296 297 297 296 297 298 299 299 300 300 300 301 302 303 306
308 308 308 307 303 304 306 307 308 310 310 310 308 308 308 305 303 300 298 296 295 295 296 295 295 295 295 295 295 295 294 294 295 295 295 295 296 297 298 298 300 301 301 302
306 307 305 307 305 302 305 304 305 308 309 309 308 305 303 300 298 296 295 294 293 292 292 292 292 292 292 291 291 291 292 292 293 293 294 294 294 294 295 297 297 298 299 300
308 308 307 306 304 306 308 306 304 305 306 307 308 308 299 297 296 293 292 292 292 291 291 291 290 289 289 289 289 289 290 290 291 291 291 291 292 293 293 294 295 296 297 298
308 308 307 306 303 309 306 302 305 305 305 305 305 300 299 298 295 294 292 291 291 291 290 289 288 288 288 288 288 289 289 289 289 290 290 290 291 292 292 292 292 293 294 296
307 308 307 306 308 304 303 299 301 303 305 303 304 294 292 292 291 287 289 290 290 289 288 287 287 287 288 287 287 287 287 287 287 287 287 288 288 289 290 290 290 290 291 293
303 307 308 299 307 307 305 299 300 300 304 295 298 294 290 291 295 291 287 288 288 287 286 286 287 286 285 285 285 286 286 285 285 285 285 285 286 287 288 288 289 289 289 290
307 308 309 309 306 303 299 297 298 300 301 292 293 292 291 292 290 288 287 286 285 285 285 285 284 283 282 283 284 284 284 284 284 284 284 285 285 286 286 287 288 288 288 289
307 309 309 308 307 307 295 296 301 296 289 291 292 291 290 289 287 286 285 285 285 284 283 281 282 282 281 281 282 283 283 283 283 283 283 284 284 284 284 285 286 286 285 286
306 304 306 306 305 288 288 289 289 290 289 288 290 288 289 288 286 285 285 284 282 281 280 280 280 280 280 280 281 282 281 281 282 282 283 283 283 283 283 283 283 282 282 282
299 297 300 300 291 286 285 286 287 287 289 288 289 287 286 285 283 282 281 280 280 280 280 280 280 280 280 281 280 280 280 280 281 281 281 281 282 282 282 282 281 280 280 279
297 297 294 293 285 284 283 284 285 285 286 285 284 284 283 282 280 280 280 279 279 279 279 280 280 279 280 280 280 280 280 280 280 280 280 280 280 281 281 281 281 280 280 276
291 295 298 299 289 291 289 286 285 287 284 283 283 281 280 280 279 278 278 278 279 279 279 279 279 279 279 279 279 279 278 277 277 278 278 279 279 279 279 280 281 282 280 280
Wind_Speed
6 5 12 13 8 5 4 5 5 2 6 3 9 17 9 25 20 22 28 34 37 33 28 26 27 29 31 32 33 34 35 37 39 41 38 40 43 44 44 43 43 43 40 38
4 15 7 7 5 5 6 10 7 4 5 5 9 16 12 12 16 24 27 34 30 29 32 31 29 29 27 27 26 27 28 30 34 39 40 40 39 42 43 44 45 45 44 41
12 3 17 10 4 6 5 7 4 6 3 4 6 20 14 11 7 18 18 23 26 28 30 28 30 27 28 26 24 28 26 24 25 31 37 40 39 40 41 43 43 43 44 42
10 6 7 5 11 9 11 6 5 4 3 8 4 8 6 3 9 5 19 22 26 17 22 20 23 26 23 23 23 21 21 19 21 25 33 39 42 44 43 40 43 43 44 45
6 8 9 6 7 5 4 6 8 6 4 4 3 5 5 5 2 8 18 16 10 14 13 19 24 26 26 21 16 14 19 21 22 21 25 31 37 40 42 42 43 42 43 43
5 3 7 9 5 11 7 5 5 2 2 9 8 6 9 5 6 3 8 4 10 9 14 20 24 26 26 26 20 18 13 11 9 10 17 23 28 31 35 38 41 42 42 42
4 5 2 5 6 3 7 7 1 2 4 6 5 7 18 3 11 11 8 11 3 14 18 22 24 26 26 26 27 26 25 24 19 11 11 18 26 30 35 37 40 41 42 43
12 5 12 7 8 7 10 9 5 6 5 4 3 7 7 6 5 1 3 4 7 12 17 19 21 23 25 25 26 24 23 23 22 20 17 13 11 18 25 32 35 38 40 41
8 7 3 4 5 13 6 12 9 2 3 2 4 8 14 11 11 9 14 8 10 11 15 17 19 20 21 23 24 26 24 24 23 22 19 17 15 14 16 19 24 30 33 35
6 2 3 7 5 4 6 8 2 3 5 7 5 6 11 4 6 7 6 8 8 9 12 15 16 17 18 19 19 18 20 23 24 24 23 19 17 17 17 19 19 21 25 28
5 3 0 5 8 13 7 9 4 5 5 5 2 6 7 11 8 8 6 6 7 8 10 12 14 16 17 17 18 18 18 19 21 24 23 22 21 19 18 18 19 20 23 23
9 3 4 8 2 4 12 9 11 5 5 3 2 9 4 4 11 11 9 11 7 7 8 10 12 14 16 20 22 22 21 21 20 25 24 24 24 24 23 23 22 23 24 24
11 5 2 5 3 1 6 12 13 14 2 10 7 8 4 10 9 9 15 10 7 5 7 9 11 15 17 19 20 21 21 21 21 25 27 26 27 26 27 28 27 27 27 27
24 5 12 16 6 6 6 8 15 14 8 18 14 22 9 7 6 11 10 7 5 5 9 11 13 16 19 22 25 26 25 26 27 24 24 28 30 31 31 30 30 31 31 32
11 9 13 14 5 5 7 14 17 17 25 14 25 18 23 11 8 12 11 7 4 4 8 13 16 19 21 24 26 28 29 32 32 31 32 33 33 34 36 35 34 34 35 34
5 6 8 13 10 8 5 8 14 23 25 18 18 13 5 6 14 12 11 9 5 4 8 14 18 22 26 29 31 31 32 33 35 36 37 37 36 37 37 38 38 37 38 38
8 7 5 6 6 5 6 25 11 9 16 17 18 28 7 5 10 17 14 9 4 3 10 16 20 24 26 28 29 33 35 34 34 35 37 40 42 42 41 40 40 41 42 42
10 13 6 4 3 10 9 2 18 21 13 17 15 3 9 12 15 15 13 9 2 5 12 16 19 22 24 25 26 29 32 34 35 37 39 41 43 45 45 45 45 45 42 43
16 12 4 5 9 5 5 6 8 9 16 16 19 8 11 18 15 6 11 7 4 8 12 15 17 19 20 23 26 28 30 33 34 36 38 39 41 44 46 47 47 44 44 44
6 14 10 3 5 8 12 6 13 7 14 11 16 13 16 19 5 4 17 9 7 9 11 13 13 16 18 21 23 24 27 31 35 39 40 40 41 42 44 46 48 49 48 47
10 8 16 15 5 6 7 7 15 7 7 9 17 23 22 6 4 16 13 6 7 8 10 11 13 15 17 20 22 25 27 30 33 35 37 38 38 40 40 43 45 47 48 48
11 9 8 8 10 13 12 5 15 5 9 19 21 24 21 15 13 9 6 5 6 6 8 10 12 13 16 19 22 24 26 28 31 33 35 37 38 39 40 40 41 42 44 44
6 6 7 8 6 2 7 2 6 12 21 21 26 21 19 15 11 9 7 5 3 3 6 9 12 13 15 18 21 23 26 29 31 32 33 34 35 36 37 40 42 43 41 41
3 4 3 3 3 2 7 7 11 10 18 23 21 19 15 13 11 9 6 4 3 2 4 7 10 12 14 16 18 20 23 26 28 30 32 34 35 37 38 38 39 40 40 40
4 7 5 3 1 1 7 9 13 17 19 18 17 13 13 12 11 9 7 5 3 0 3 6 8 11 13 14 16 20 23 26 28 29 31 33 34 36 38 37 37 38 36 33
7 6 6 4 9 3 3 23 22 20 19 16 15 15 13 11 10 9 8 6 3 1 2 5 7 10 13 16 18 19 21 24 27 29 30 31 33 34 34 37 39 33 35 33
Wind_Direction
182 203 208 202 207 190 140 165 185 239 262 279 259 272 260 279 287 287 299 304 304 299 306 307 310 302 297 289 282 276 275 272 270 270 268 266 266 267 268 269 269 265 264 262
180 229 197 193 209 208 206 232 231 236 243 201 283 277 279 270 270 284 295 295 294 307 308 315 320 314 309 301 293 284 291 282 269 263 266 266 270 268 269 267 269 270 267 264
203 223 186 182 164 179 196 221 211 232 314 271 295 287 270 254 256 283 282 282 295 305 318 327 326 321 312 298 287 288 293 280 278 266 264 263 263 262 264 267 269 273 274 270
230 225 170 169 205 183 228 182 163 208 233 262 127 287 310 274 277 244 275 292 300 327 335 350 0 2 339 314 295 287 283 280 284 280 268 262 262 263 269 275 276 275 275 274
212 180 176 195 210 158 228 167 181 179 215 299 219 284 285 113 197 265 276 286 324 341 25 20 22 22 22 10 342 318 301 295 292 284 276 272 269 269 272 272 273 276 277 277
211 186 175 197 162 183 154 91 58 64 124 245 177 182 271 183 186 218 265 326 345 34 21 24 27 28 29 30 32 28 2 332 306 311 301 289 284 283 277 276 274 277 279 280
149 204 171 142 112 115 178 135 195 212 205 246 202 175 246 305 284 239 268 302 88 25 24 19 20 23 24 26 33 37 37 33 18 352 327 309 302 297 292 288 284 283 283 283
207 209 188 186 188 169 195 188 186 195 194 236 133 231 246 199 278 212 143 145 72 35 26 23 25 25 27 26 25 25 29 32 34 31 25 3 324 304 299 293 292 290 290 290
183 236 119 205 163 160 176 209 213 349 80 56 230 280 285 275 271 150 151 104 65 44 36 28 25 26 25 24 24 21 16 20 19 16 14 8 356 337 311 295 294 291 292 294
203 156 199 185 134 223 168 153 151 194 202 234 243 252 238 263 94 133 137 82 74 44 29 24 17 16 26 30 28 23 11 8 6 4 2 359 349 337 328 322 309 293 293 295
151 154 9 134 200 175 177 209 206 141 165 179 219 250 211 237 216 164 158 116 100 58 37 24 17 20 21 17 18 23 24 10 1 1 357 352 349 345 333 322 316 311 301 290
182 167 176 201 230 232 208 211 193 180 209 229 250 257 166 150 145 146 147 134 105 73 52 32 19 12 13 16 16 9 2 6 4 358 354 349 348 343 339 335 330 322 309 303
172 204 107 321 5 34 196 216 201 218 80 215 209 258 14 144 137 141 143 135 106 76 47 31 15 11 6 6 5 5 7 1 338 338 340 341 338 338 336 334 331 327 321 313
173 190 216 224 215 146 201 197 206 199 216 239 224 247 216 190 173 155 135 126 108 61 32 19 10 4 358 353 352 352 350 349 347 348 333 335 328 331 330 327 323 322 322 318
176 219 216 237 205 190 205 210 202 205 221 214 242 231 254 225 186 167 153 148 125 51 17 5 358 352 348 345 344 343 343 342 341 340 337 336 335 329 324 324 321 317 315 315
196 233 174 246 231 214 231 223 204 211 225 228 250 247 159 142 140 149 160 156 125 45 2 352 349 345 344 342 340 340 340 340 338 337 335 334 332 332 329 325 322 318 314 311
189 198 155 246 175 165 237 230 202 213 220 210 223 240 148 170 172 170 167 166 153 356 345 345 341 340 340 339 339 339 340 341 340 340 340 338 336 335 334 331 327 323 318 313
191 211 190 222 140 223 237 188 205 208 215 213 232 169 166 166 167 174 181 184 208 324 331 334 333 334 336 336 337 341 343 343 344 344 343 341 339 337 336 334 332 329 321 317
208 197 205 176 219 311 263 196 158 166 245 215 219 152 140 140 144 169 192 207 261 310 322 325 328 328 330 336 342 346 346 346 346 346 347 346 343 341 339 335 332 330 325 321
208 220 211 150 195 214 254 168 163 105 269 177 181 172 151 145 175 176 193 214 272 301 312 314 320 331 339 342 344 345 346 348 349 351 350 350 348 344 340 337 334 332 329 324
200 214 220 215 217 261 219 169 148 142 249 151 155 154 156 168 137 153 177 228 281 300 308 318 341 348 347 344 346 352 352 351 350 349 350 350 349 345 343 338 335 331 329 325
199 198 211 208 208 248 158 127 180 179 120 159 164 163 154 152 151 167 200 233 259 290 322 339 351 354 354 353 355 355 353 351 352 352 352 351 352 351 348 343 340 336 332 327
233 214 200 203 215 17 181 57 155 161 157 163 162 162 161 163 177 190 200 223 263 312 333 349 359 7 7 4 360 357 355 354 354 353 354 353 354 355 355 352 348 344 340 336
284 226 206 126 182 174 214 180 164 169 163 160 164 165 168 167 173 178 186 203 244 300 346 357 6 11 11 9 2 356 354 352 351 352 354 355 355 355 357 357 356 351 349 342
187 163 164 274 153 83 217 190 166 156 154 158 160 167 166 166 171 179 183 189 200 245 10 6 6 5 1 359 354 349 345 343 343 345 347 348 351 353 352 353 355 354 355 346
185 169 179 218 166 122 162 188 181 170 171 173 171 163 163 170 175 174 171 168 159 127 24 5 352 344 344 344 342 339 339 340 339 341 343 345 346 347 347 345 342 348 349 352